W9KHP-1 Weather Reports


time (UTC)temp
C
wind
direction
speed
KPH
gust
KPH
rain 1hr
cm
rain 24hr
cm
rain mn
cm
humidity
%
barometer
mb
20260504110335 12 249 0.0 0.0 0.00 0.00 0.00 83 1013.8
20260504100257 13 226 0.0 0.0 0.00 0.00 0.00 76 1013.3
20260504081650 14 246 0.0 0.0 0.00 0.00 0.00 67 1012.4
20260504081147 13 259 0.0 0.0 0.00 0.00 0.00 68 1012.8
20260504080643 13 247 0.0 0.0 0.00 0.00 0.00 68 1012.6
20260504080139 13 259 0.0 0.0 0.00 0.00 0.00 68 1012.7
20260504070108 13 197 0.0 0.0 0.00 0.00 0.00 69 1012.8
20260504050456 14 203 3.2 6.4 0.00 0.00 0.00 63 1013.6
20260504045953 15 257 0.0 3.2 0.00 0.00 0.00 62 1013.6
20260504045449 15 118 1.6 3.2 0.00 0.00 0.00 62 1013.8
20260504044945 15 257 0.0 9.7 0.00 0.00 0.00 62 1013.8
20260504044443 15 204 4.8 6.4 0.00 0.00 0.00 61 1013.8
20260504043940 15 247 1.6 4.8 0.00 0.00 0.00 63 1013.8
20260504043437 15 260 0.0 3.2 0.00 0.00 0.00 63 1013.7
20260504042934 15 244 0.0 6.4 0.00 0.00 0.00 63 1013.7
20260504042431 15 245 3.2 4.8 0.00 0.00 0.00 63 1013.9
20260504041927 15 182 3.2 4.8 0.00 0.00 0.00 63 1014.1
20260504041424 14 139 6.4 9.7 0.00 0.00 0.00 63 1014.2
20260504040920 15 178 0.0 6.4 0.00 0.00 0.00 64 1014.3
20260504040418 14 189 0.0 4.8 0.00 0.00 0.00 65 1014.3
20260504035908 15 204 0.0 9.7 0.00 0.00 0.00 64 1014.4
20260504035406 14 197 0.0 3.2 0.00 0.00 0.00 63 1014.5
20260504034902 14 205 1.6 3.2 0.00 0.00 0.00 64 1014.3
20260504034400 14 158 3.2 4.8 0.00 0.00 0.00 63 1014.4
20260504033857 15 187 3.2 11.3 0.00 0.00 0.00 63 1014.6
20260504033355 14 147 6.4 9.7 0.00 0.00 0.00 63 1014.4
20260504032851 15 149 0.0 6.4 0.00 0.00 0.00 62 1014.3
20260504032348 15 143 1.6 4.8 0.00 0.00 0.00 62 1014.6
20260504031845 15 187 0.0 6.4 0.00 0.00 0.00 63 1014.9
20260504031342 15 127 3.2 6.4 0.00 0.00 0.00 62 1014.8
20260504030838 15 152 3.2 4.8 0.00 0.00 0.00 62 1014.9
20260504030336 15 160 0.0 3.2 0.00 0.00 0.00 62 1015.0
20260504025832 15 183 0.0 3.2 0.00 0.00 0.00 63 1015.1
20260504025329 15 174 4.8 6.4 0.00 0.00 0.00 62 1014.9
20260504024825 14 142 0.0 1.6 0.00 0.00 0.00 63 1015.0
20260504024322 15 147 0.0 1.6 0.00 0.00 0.00 63 1015.1
20260504023819 14 151 0.0 3.2 0.00 0.00 0.00 64 1015.2
20260504023315 14 108 0.0 3.2 0.00 0.00 0.00 65 1015.3
20260504022811 14 160 1.6 1.6 0.00 0.00 0.00 64 1015.1
20260504022308 15 166 0.0 1.6 0.00 0.00 0.00 64 1015.4
20260504021804 14 132 0.0 3.2 0.00 0.00 0.00 63 1015.3
20260504021303 14 133 0.0 0.0 0.00 0.00 0.00 65 1015.1
20260504020759 15 134 0.0 3.2 0.00 0.00 0.00 63 1015.2
20260504020256 15 184 0.0 0.0 0.00 0.00 0.00 63 1015.1
20260504015752 15 152 0.0 0.0 0.00 0.00 0.00 62 1015.1
20260504015248 15 153 0.0 1.6 0.00 0.00 0.00 61 1015.2
20260504014744 14 161 0.0 0.0 0.00 0.00 0.00 63 1015.1
20260504014241 14 251 0.0 0.0 0.00 0.00 0.00 65 1015.3
20260504013739 14 251 0.0 0.0 0.00 0.00 0.00 62 1015.2
20260504013236 15 251 0.0 0.0 0.00 0.00 0.00 61 1015.2
20260504012732 15 282 0.0 0.0 0.00 0.00 0.00 60 1015.5
20260504012230 15 282 0.0 0.0 0.00 0.00 0.00 59 1015.2
20260504011727 15 206 0.0 0.0 0.00 0.00 0.00 58 1015.1
20260504011224 15 282 0.0 0.0 0.00 0.00 0.00 59 1015.1
20260504010720 16 282 0.0 0.0 0.00 0.00 0.00 55 1015.5
20260504010215 16 286 0.0 0.0 0.00 0.00 0.00 54 1015.1
20260504005712 16 286 0.0 0.0 0.00 0.00 0.00 53 1015.2
20260504005209 16 286 0.0 0.0 0.00 0.00 0.00 53 1015.1
20260504004707 16 269 0.0 3.2 0.00 0.00 0.00 53 1015.2
20260504004204 16 303 0.0 0.0 0.00 0.00 0.00 51 1015.1
20260504003701 17 241 1.6 4.8 0.00 0.00 0.00 51 1014.9
20260504003157 17 149 0.0 1.6 0.00 0.00 0.00 50 1014.6
20260504002653 17 185 0.0 6.4 0.00 0.00 0.00 50 1014.8
20260504002151 17 293 0.0 9.7 0.00 0.00 0.00 49 1014.5
20260504001649 17 126 4.8 12.9 0.00 0.00 0.00 49 1014.6
20260504001144 17 287 0.0 6.4 0.00 0.00 0.00 49 1014.5
20260504000642 17 220 3.2 4.8 0.00 0.00 0.00 49 1014.4
20260504000139 17 294 0.0 12.9 0.00 0.00 0.00 49 1014.4
20260503235637 17 249 1.6 4.8 0.00 0.00 0.00 50 1014.5
20260503235133 17 172 3.2 11.3 0.00 0.00 0.00 49 1014.4
20260503234631 17 229 11.3 14.5 0.00 0.00 0.00 48 1014.7
20260503234130 18 210 3.2 11.3 0.00 0.00 0.00 49 1014.7
20260503233626 17 236 1.6 3.2 0.00 0.00 0.00 48 1014.6
20260503233122 18 231 1.6 12.9 0.00 0.00 0.00 49 1014.6
20260503232619 18 197 4.8 11.3 0.00 0.00 0.00 48 1014.7
20260503232117 18 240 0.0 11.3 0.00 0.00 0.00 48 1014.7
20260503231615 18 224 3.2 14.5 0.00 0.00 0.00 48 1014.9
20260503231111 18 247 1.6 14.5 0.00 0.00 0.00 47 1014.8
20260503230609 18 224 3.2 6.4 0.00 0.00 0.00 47 1015.0
20260503230105 18 237 3.2 9.7 0.00 0.00 0.00 49 1015.0
20260503225603 18 158 0.0 16.1 0.00 0.00 0.00 48 1015.1
20260503225057 18 279 4.8 20.9 0.00 0.00 0.00 48 1015.1
20260503224555 18 195 3.2 6.4 0.00 0.00 0.00 48 1015.2
20260503224053 18 269 4.8 12.9 0.00 0.00 0.00 48 1015.4
20260503223550 18 165 4.8 12.9 0.00 0.00 0.00 48 1015.4
20260503223045 18 237 1.6 14.5 0.00 0.00 0.00 47 1015.5
20260503222544 18 181 1.6 6.4 0.00 0.00 0.00 47 1015.6
20260503222042 18 267 4.8 6.4 0.00 0.00 0.00 48 1015.8
20260503221539 18 227 6.4 12.9 0.00 0.00 0.00 47 1015.6
20260503221037 18 148 3.2 17.7 0.00 0.00 0.00 48 1015.9
20260503220533 19 203 4.8 11.3 0.00 0.00 0.00 46 1015.8
20260503220030 18 135 3.2 12.9 0.00 0.00 0.00 46 1015.9
20260503215527 18 231 4.8 11.3 0.00 0.00 0.00 47 1015.9
20260503215024 19 228 16.1 22.5 0.00 0.00 0.00 44 1016.2
20260503214522 19 256 6.4 12.9 0.00 0.00 0.00 46 1016.2
20260503214018 19 233 3.2 6.4 0.00 0.00 0.00 45 1016.4
20260503213517 19 198 0.0 14.5 0.00 0.00 0.00 47 1016.5
20260503213013 19 327 4.8 14.5 0.00 0.00 0.00 45 1016.6
20260503212511 19 191 6.4 17.7 0.00 0.00 0.00 48 1016.5
20260503212008 19 241 4.8 11.3 0.00 0.00 0.00 46 1016.6
20260503211505 19 141 3.2 6.4 0.00 0.00 0.00 46 1016.7
20260503211000 20 264 6.4 11.3 0.00 0.00 0.00 46 1016.8
20260503210457 20 276 6.4 12.9 0.00 0.00 0.00 45 1017.1
20260503205952 19 210 9.7 12.9 0.00 0.00 0.00 46 1017.2
20260503205449 20 204 3.2 9.7 0.00 0.00 0.00 47 1017.5
20260503204945 19 257 3.2 17.7 0.00 0.00 0.00 47 1017.2
20260503204443 19 222 6.4 14.5 0.00 0.00 0.00 46 1017.3
20260503203939 19 268 4.8 12.9 0.00 0.00 0.00 44 1017.6
20260503203437 19 152 4.8 14.5 0.00 0.00 0.00 46 1017.7
20260503202934 19 152 1.6 12.9 0.00 0.00 0.00 47 1017.9
20260503202432 20 320 6.4 16.1 0.00 0.00 0.00 45 1018.2
20260503201930 18 100 3.2 9.7 0.00 0.00 0.00 45 1018.1
20260503201427 18 31 0.0 16.1 0.00 0.00 0.00 48 1018.3
20260503200924 18 220 9.7 24.1 0.00 0.00 0.00 46 1018.4
20260503200420 18 315 1.6 11.3 0.00 0.00 0.00 47 1018.4
20260503195917 18 219 3.2 12.9 0.00 0.00 0.00 46 1018.4
20260503195415 19 143 11.3 16.1 0.00 0.00 0.00 44 1018.5
20260503194911 18 171 3.2 11.3 0.00 0.00 0.00 49 1018.7
20260503194408 18 136 1.6 9.7 0.00 0.00 0.00 47 1018.8
20260503193904 18 141 6.4 11.3 0.00 0.00 0.00 48 1018.7
20260503193359 18 182 4.8 12.9 0.00 0.00 0.00 46 1018.8
20260503192855 18 252 6.4 16.1 0.00 0.00 0.00 47 1019.1
20260503192351 18 255 6.4 14.5 0.00 0.00 0.00 50 1019.0
20260503191848 18 278 3.2 9.7 0.00 0.00 0.00 48 1019.3
20260503191345 18 139 4.8 14.5 0.00 0.00 0.00 48 1019.1
20260503190841 17 274 3.2 17.7 0.00 0.00 0.00 50 1019.2
20260503190338 18 235 3.2 6.4 0.00 0.00 0.00 47 1019.5
20260503185836 18 191 6.4 9.7 0.00 0.00 0.00 48 1019.6
20260503185332 18 175 6.4 12.9 0.00 0.00 0.00 47 1019.7
20260503184831 18 223 3.2 6.4 0.00 0.00 0.00 46 1019.8
20260503184327 17 208 1.6 12.9 0.00 0.00 0.00 49 1020.0
20260503183823 17 260 6.4 6.4 0.00 0.00 0.00 48 1020.2
20260503183321 17 200 6.4 20.9 0.00 0.00 0.00 48 1020.2
20260503182818 17 255 9.7 14.5 0.00 0.00 0.00 48 1020.3
20260503182317 18 246 6.4 9.7 0.00 0.00 0.00 51 1020.2
20260503181814 20 135 9.7 17.7 0.00 0.00 0.00 45 1020.3
20260503181311 18 325 0.0 4.8 0.00 0.00 0.00 49 1020.6
20260503180807 17 267 3.2 6.4 0.00 0.00 0.00 51 1020.6
20260503180306 17 206 6.4 6.4 0.00 0.00 0.00 51 1020.8
20260503175801 18 212 6.4 9.7 0.00 0.00 0.00 45 1020.9
20260503175300 18 115 0.0 9.7 0.00 0.00 0.00 46 1021.0
20260503174755 17 241 3.2 12.9 0.00 0.00 0.00 51 1021.1
20260503174253 17 221 8.0 12.9 0.00 0.00 0.00 48 1021.1
20260503173748 17 264 6.4 9.7 0.00 0.00 0.00 48 1021.4
20260503173244 17 335 6.4 9.7 0.00 0.00 0.00 47 1021.5
20260503172741 17 204 1.6 4.8 0.00 0.00 0.00 49 1021.5
20260503172238 16 225 8.0 14.5 0.00 0.00 0.00 46 1021.6
20260503171735 16 320 0.0 9.7 0.00 0.00 0.00 48 1021.6
20260503171232 17 264 3.2 11.3 0.00 0.00 0.00 47 1021.7
20260503170729 17 224 6.4 9.7 0.00 0.00 0.00 45 1021.8
20260503170226 18 202 1.6 6.4 0.00 0.00 0.00 46 1021.9
20260503160148 15 144 0.0 9.7 0.00 0.00 0.00 53 1022.5
20260503150618 13 289 0.0 4.8 0.00 0.00 0.00 58 1023.1
20260503150114 13 216 4.8 11.3 0.00 0.00 0.00 53 1023.1
20260503131008 9 206 0.0 3.2 0.00 0.00 0.00 76 1023.3
20260503130505 8 189 0.0 1.6 0.00 0.00 0.00 78 1023.2